Location: Unspecified
(35.7250°N, 0.0000°E)
Time: 05:40:32
(UTC+00:00)

Tiros 1 - Pass Details

Date: 04 July 2019
Orbit: 630 x 664 km, 48.4° (Epoch: 22 July)

Event Time Altitude Azimuth Distance (km) Brightness Sun altitude
Rises 20:30:34 0° 286° (WNW) 2,977 11.9 -12.6°
Reaches altitude 10° 20:33:33 10° 305° (NW) 2,060 11.2 -13.1°
Maximum altitude 20:36:55 19° 350° (N) 1,548 9.8 -13.6°
Drops below altitude 10° 20:40:16 10° 36° (NE) 2,046 9.8 -14.1°
Sets 20:43:13 0° 54° (NE) 2,949 10.4 -14.5°
